Estación de La capilla

Ultimos registro cada 15 minutos 47
Estación Fecha / Hora Temperatura Humedad Lluvia Velocidad Dirección Radiación Presion
47 La capilla 05-05-2026 11:30 12,9 100 0 0 360 181 1083,8
46 La capilla 05-05-2026 11:15 12,6 100 0 0,4 360 118 1084,4
45 La capilla 05-05-2026 11:00 12,4 100 0 1,3 360 109 1084,5
44 La capilla 05-05-2026 10:45 12,3 100 0 0 360 56 1085,3
43 La capilla 05-05-2026 10:30 12 100 0 0,9 360 130 1085,2
42 La capilla 05-05-2026 10:15 11,9 100 0 0 360 70 1085,5
41 La capilla 05-05-2026 10:00 11,7 100 0,2 0 360 88 1085,2
40 La capilla 05-05-2026 09:45 11,4 100 0 0,9 360 54 1085,7
39 La capilla 05-05-2026 09:30 11,5 100 0 0 360 23 1086,2
38 La capilla 05-05-2026 09:15 11,3 100 0 0 360 30 1085,6
37 La capilla 05-05-2026 09:00 11,3 100 0 0 360 14 1085,5
36 La capilla 05-05-2026 08:45 11,2 100 0 0 360 19 1084,9
35 La capilla 05-05-2026 08:30 11,1 100 0 0 360 21 1085,4
34 La capilla 05-05-2026 08:15 11 100 0 0 360 14 1085,7
33 La capilla 05-05-2026 08:00 11 100 0 0 360 5 1086,1
32 La capilla 05-05-2026 07:45 10,9 100 0 0 360 0 1086
31 La capilla 05-05-2026 07:30 10,8 100 0 0 360 0 1086,6
30 La capilla 05-05-2026 07:15 10,8 100 0 0 360 0 1086,8
29 La capilla 05-05-2026 07:00 10,8 100 0 0 360 0 1086,3
28 La capilla 05-05-2026 06:45 10,8 100 0 0 360 0 1086,7
27 La capilla 05-05-2026 06:30 10,9 100 0 0 360 0 1087
26 La capilla 05-05-2026 06:15 10,9 100 0 0 360 0 1087,2
25 La capilla 05-05-2026 06:00 10,9 100 0 0 360 0 1087,3
24 La capilla 05-05-2026 05:45 10,9 100 0 0 360 0 1087,2
23 La capilla 05-05-2026 05:30 10,8 100 0,2 0 360 0 1087,2
22 La capilla 05-05-2026 05:15 10,9 100 0 0 360 0 1087,2
21 La capilla 05-05-2026 05:00 10,9 100 0 0 360 0 1087,8
20 La capilla 05-05-2026 04:45 11,1 100 0 0 360 0 1087,5
19 La capilla 05-05-2026 04:30 11,1 100 0 0 360 0 1087,3
18 La capilla 05-05-2026 04:15 11 100 0,2 0 360 0 1087,1
17 La capilla 05-05-2026 04:00 10,9 100 0 0 360 0 1087,2
16 La capilla 05-05-2026 03:45 10,9 100 0,2 0 360 0 1087,4
15 La capilla 05-05-2026 03:30 11 99 0,2 0 360 0 1087,3
14 La capilla 05-05-2026 03:15 11,1 100 0,2 0 360 0 1087,3
13 La capilla 05-05-2026 03:00 11,1 99 0,2 0 360 0 1087,6
12 La capilla 05-05-2026 02:45 11,1 99 0 0 360 0 1087,2
11 La capilla 05-05-2026 02:30 11,1 99 0 0 360 0 1087,2
10 La capilla 05-05-2026 02:15 11,1 99 0 0 360 0 1087,3
9 La capilla 05-05-2026 02:00 11,1 99 0 0 360 0 1087,6
8 La capilla 05-05-2026 01:45 11,1 99 0 0 360 0 1087,6
7 La capilla 05-05-2026 01:30 11,2 99 0 0 360 0 1087,6
6 La capilla 05-05-2026 01:15 11,2 100 0 0 360 0 1087,6
5 La capilla 05-05-2026 01:00 11,2 99 0 0 360 0 1087,8
4 La capilla 05-05-2026 00:45 11,2 99 0 0 360 0 1087,5
3 La capilla 05-05-2026 00:30 11,2 99 0 0 360 0 1087,7
2 La capilla 05-05-2026 00:15 11,3 99 0 0 360 0 1087,9
1 La capilla 05-05-2026 00:00 11,3 99 0 0 360 0 1087,7